Regional Weather Roundup
Issued by NWS San Diego, CA

Home | Current Version | Previous Version | Text Only | Print | Product List | Glossary On
Versions: 1 2 3 4 5 6 7 8 9 10 11 12 13 14 15 16 17 18 19 20 21 22 23 24 25 26 27 28 29 30 31 32 33 34 35 36 37 38 39 40 41 42 43 44 45 46 47 48 49 50
000
ASUS46 KSGX 010611
RWRSGX

SAN DIEGO HOURLY WEATHER ROUNDUP
NATIONAL WEATHER SERVICE SAN DIEGO CA
1100 PM PDT TUE JUN 30 2015

NOTE: "FAIR" INDICATES FEW OR NO CLOUDS BELOW 12,000 FEET WITH NO
SIGNIFICANT WEATHER AND/OR OBSTRUCTIONS TO VISIBILITY.

CAZ042-043-060-061-PZZ750-775-010700-

GREATER SAN DIEGO AREA

CITY           SKY/WX    TMP DP  RH WIND       PRES   REMARKS
LINDBERGH FLD  MOCLDY    71  65  80 SE3       29.88R
POINT LOMA       N/A     67  64  91 NE3         N/A
CHULA VISTA      N/A     68  66  93 CALM      29.80R
IMPERIAL BEACH PTCLDY    68  65  90 N5        29.88R
BROWN FIELD    CLEAR     68  64  87 CALM      29.88
MIRAMAR MCAS   PTCLDY    71  64  78 CALM      29.88R
MONTGOMERY FLD CLEAR     69  66  90 E3        29.88

$$

NORTH SAN DIEGO COUNTY

CITY           SKY/WX    TMP DP  RH WIND       PRES   REMARKS
CAMP PENDLETON PTCLDY    69  64  84 VRB3      29.87R
OCEANSIDE AP   CLEAR     70  65  84 CALM      29.85
VISTA            N/A     69  64  83 CALM      29.84R
CARLSBAD       CLEAR     70  66  87 SE3       29.86
DEL MAR          N/A     67  66  94 CALM      29.89R
FALLBROOK        N/A     69  69 100 CALM      29.87R
SAN MARCOS       N/A     69  64  84 CALM      29.85R
POWAY            N/A     70  65  85 CALM      29.88R

$$

EAST SAN DIEGO COUNTY

CITY           SKY/WX    TMP DP  RH WIND       PRES   REMARKS
RAMONA         CLEAR     70  67  90 W5        29.91
SANTEE LAKES     N/A     70  66  88 CALM      29.86R
LA MESA          N/A     67  65  92 CALM      29.63R
JAMUL            N/A     68  66  92 CALM      29.86R
DESCANSO N       N/A     66  60  80 CALM      29.73R
CAMPO            N/A     69  64  84 CALM      29.95R

$$

ORANGE COUNTY AND THE LOS ANGELES BASIN

CITY           SKY/WX    TMP DP  RH WIND       PRES   REMARKS
JOHN WAYNE AP  CLEAR     72  61  68 S3        29.86
SANTA ANA        N/A     73  63  70 CALM      29.81R
LOS ALAMITOS   FAIR      72  63  73 N2        29.85R
FULLERTON      CLEAR     75  62  64 CALM      29.85
LONG BEACH     CLEAR     73  62  68 NW13      29.84
L.A. AP        PTCLDY    66  64  94 W14       29.85S
L.A. DOWNTOWN  CLEAR     70  64  81 CALM      29.84F

$$

THE INLAND EMPIRE

CITY           SKY/WX    TMP DP  RH WIND       PRES   REMARKS
CORONA         CLEAR     77  58  51 W8        29.86R
CHINO          CLEAR     77  56  48 W7        29.87
ONTARIO        PTCLDY    79  50  36 SW7       29.87
RIVERSIDE AP   CLEAR     81  53  37 W5        29.86
MORENO VALLEY    N/A     77  57  49 CALM      29.86S
MARCH ARB      CLEAR     78  59  53 CALM      29.89S
HORSETHIEF CYN   N/A     78  52  39 S3        29.81R
PERRIS           N/A     78  64  61 SE2         N/A
MENIFEE          N/A     78  65  65 CALM      29.94R
HEMET EAST       N/A     75  59  58 CALM      29.87S
FRENCH VALLEY  FAIR      77  66  69 S6        29.90R
TEMECULA         N/A     75  68  78 CALM      29.85R

$$

SAN BERNARDINO AND RIVERSIDE COUNTY MOUNTAINS

CITY           SKY/WX    TMP DP  RH WIND       PRES   REMARKS
BIG BEAR AP    CLEAR     57  46  67 CALM      30.28F
PINE COVE        N/A     69  51  53 CALM      29.82R

$$

SOUTHERN DESERT INCLUDING THE COACHELLA VALLEY

CITY           SKY/WX    TMP DP  RH WIND       PRES   REMARKS
PALM SPRINGS   CLEAR     94  57  28 NW5       29.76
THOUSAND PALMS   N/A     93  56  28 NW8       29.72
PALM DESERT      N/A     92  59  32 CALM      31.72R
THERMAL        CLEAR     92  58  31 CALM      29.70
BLYTHE         CLOUDY    97  59  28 S7        29.72F HX  96
IMPERIAL AP    CLEAR     94  58  29 S10       29.72
EL CENTRO NAS  PTCLDY    91  60  35 S9        29.75R
YUMA AZ        CLOUDY    90  62  39 S13       29.78R

$$

UPPER DESERT

CITY           SKY/WX    TMP DP  RH WIND       PRES   REMARKS
VICTORVILLE AP PTCLDY    81  43  26 CALM      29.96F
HESPERIA         N/A     77  53  43 CALM      29.89F
APPLE VALLEY     N/A     80  49  33 CALM      30.03S
PALMDALE       CLEAR     84  48  28 S9        29.93
LANCASTER      CLEAR     87  50  27 SW9       29.91F
EDWARDS AFB    PTCLDY    82  47  28 S12       29.88F
DAGGETT        MOCLDY    89  46  22 W12       29.86
29 PALMS N     PTCLDY    92  53  26 N9        29.93R THUNDER
NEEDLES        MOCLDY   103  52  18 S8        29.73R HX 100

$$

REGIONAL REPORTS

CITY           SKY/WX    TMP DP  RH WIND       PRES   REMARKS
SANTA BARBARA  PTCLDY    65  60  84 CALM      29.85
SANDBERG       CLEAR     81  51  35 N18G26    30.11F
LAS VEGAS NV   CLOUDY   104  45  13 SW12      29.74S HX 100
PHOENIX AZ     CLOUDY    97  60  29 SW15      29.75F HX  97
TIJUANA        CLEAR     68  63  83 CALM      29.90R
ENSENADA NW      N/A     68  32  26 CALM      29.85R

$$

OFFSHORE ISLANDS

CITY           SKY/WX    TMP DP  RH WIND       PRES   REMARKS
CATALINA ARPT  CLEAR     80  47  31 SW6       29.93
SAN NICOLAS IS PTCLDY   N/A N/A N/A SW12      29.87S

$$

MARINE AND OFFSHORE BUOY REPORTS

STATION/POSITION SKY/WX   TEMP    WIND        PRES    SWELL
                          AIR SEA DIR/SP/G            HT/PER/DIR
                          (F)     (DEG/KT/KT) (MB)    (FT/S/D)
TANNER BANKS               60 61  300/ 10/ 12 1011.5F   3/310/ 8
S CLEMENTE BASIN           65 67  280/ 12/ 16 1010.2F   3/180/14
SAN NICOLAS IS.               62                N/A     2/200/17
SO. S. ROSA ISLA           58 60  300/ 14/ 16 1010.8F   3/ 8
W. S. BARBARA CH           58 60  310/ 16/ 17 1010.3R   3/300/ 8
M. S. BARBARA CH           61 64  260/  8/ 10 1011.9R
S. MONICA BASIN            66 67  260/ 10/ 12 1011.1R   3/190/13
S PEDRO CHANNEL               69                N/A     2/210/17
DANA POINT                    66                N/A     2/180/13
OCEANSIDE OFFSHR              71                N/A     2/200/13
TORREY PINES OTR              70                N/A     2/210/17
LA JOLLA 1                 70 70  280/  2/  4 1010.8R
MISSION BAY BUOY              70                N/A     2/200/13
SAN DIEGO BAY                 69              1011.3S
POINT LOMA SOUTH              70                N/A     2/210/17

$$



USA.gov is the U.S. government's official web portal to all federal, state and local government web resources and services.